DMSP 5D-2 F13 DEB, 40415

Orbit data source: Space-Track

DMSP 5D-2 F13 DEB, 40415 is space debris in SSO originally from a launch on Fri, 24 Mar 1995 UTC launched from the Air Force Western Test Range (AFWTR). Debris objects in space refer to the collection of defunct objects orbiting the Earth. Examples of debris include non-operational satellites, rocket bodies, and fragments generated from explosions, collisions, or faulty payload assembly.

Loading next visibility...
Identifier
40415, 1995-015AC
Orbit
SSO
Country
Flag of USUS
Related business
Manufacturer
Unknown
Mission
Spacecraft
Bus & Motor
Unknown
Mass
Unknown
Launch date (UTC)
1995-03-24 (31 years ago)
Launch vehicle
Unknown
Launch site
Air Force Western Test Range (AFWTR)
Object type
Payload
Rocket body
Debris
Shape & HBR
Unknown shape, 0.1 m
Radar Cross Section
Medium (>0.1 m² and <1 m²)

Expand to show TLE details & history
Last TLE update: 2 days ago

TLE from 2 days ago
0 DMSP 5D-2 F13 DEB
1 40415U 95015AC  26234.30487734  .00001478  00000-0  59292-3 0  9997
2 40415  98.7181 261.8461 0006971 133.2892 226.8872 14.29739587595491
Epoch: 2026-08-22T07:19Z
TLE epoch observation values (Epoch: 2026-08-22T07:19:01.402Z)
Latitude
-0.00003°
Longitude
-178.52693°
Altitude
798.948 km
Speed
7.452 km/s
True Right ascension
17h 27m 23s
True Declination
0° 00' 00"
Sunlit
Object was in daylight at epoch
Visualization orbit readout
Latitude
Unknown
Longitude
Unknown
Altitude
Unknown
Speed
Unknown
Apparent Right ascension
Unknown
Apparent Declination
Unknown
Sunlit
N/A
Visualization observer readout
Local Sidereal Time
15:53:55
Azimuth
Unknown
Elevation
Unknown
Doppler factor
Unknown
Orbital elements
Apogee altitude
794.744 km
Perigee altitude
784.751 km
Semi-major axis
7,167.884 km
Eccentricity
0.0007
Inclination
98.7181°
RAAN
261.8461°
Arg. of periapsis
133.2892°
True anomaly
226.82892°
Mean anomaly
226.8872°
Eccentric anomaly
226.85806°
Mean motion
3.57649 °/min
Orbital period
100.66 mins
BSTAR
0.00059292

Documentation

Showing up to 5 results
|